Location: Newark
(48.2308°N, 120.8549°W)
Time: 03:07:27
(UTC+00:00)

FENGYUN 1C DEB - Pass Details

Date: 01 February 2022
Orbit: 822 x 948 km, 99.2° (Epoch: 28 May)

Event Time Altitude Azimuth Distance (km) Brightness Sun altitude
Rises 05:03:39 0° 218° (SW) 3,614 ? -40.0°
Reaches altitude 10° 05:07:24 10° 242° (WSW) 2,671 ? -40.6°
Maximum altitude 05:10:32 14° 273° (W) 2,357 ? -41.1°
Drops below altitude 10° 05:13:40 10° 305° (NW) 2,662 ? -41.5°
Sets 05:17:25 0° 330° (NNW) 3,592 ? -42.1°
